sat.trackr.live / text

‹ back to catalog

STARLINK-30700

NORAD 57953 · 2023-148U

PAYLOAD ACTIVE UNKNOWN

§ Identity

Operator
Country
US
Launch date
2023-09-25
Launch site
AFWTR
Launch vehicle
Mass (kg)
RCS (m²)

Purposes: comms

External: N2YO · Heavens-Above · Gunter

§ Orbital elements

Epoch: 2026-09-20T04:23:18.990816Z

Period
93.85 min
Inclination
53.1583°
Eccentricity
0.0001425
Mean motion
15.34390626 rev/d
Perigee alt
461.8 km
Apogee alt
463.7 km
Semi-major
6,840.9 km
B*
4.0831e-5
RAAN
188.8946°
Arg perigee
67.1505°
Mean anomaly
292.9648°
Rev number
16,836

§ Raw data

STARLINK-307001 57953U 23148U   26263.18285869  .00001003  00000+0  40831-4 0  99962 57953  53.1583 188.8946 0001425  67.1505 292.9648 15.34390626168369

JSON: /api/v1/satellites/57953 · /tle

For live sub-satellite position, see the globe view (requires WebGL).

§ Visibility from observer

Set your observer location to see the next 7 days of passes ≥ 10°. The values pass through the URL so the page stays shareable.

No JS? Fill the form by hand. The geolocation button needs JavaScript.